677  
ASUS41 KALY 251310  
RWRALY  
 
NEW YORK STATE HOURLY WEATHER ROUNDUP  
NATIONAL WEATHER SERVICE ALBANY NY  
800 AM EST SAT FEB 25 2017  
 
NOTE: "FAIR" INDICATES FEW OR NO CLOUDS BELOW 12,000 FEET WITH NO  
SIGNIFICANT WEATHER AND/OR NO S TO VISIBILITY
.  
 
NYZ032-033-038>043-046>054-057>066-NYZ062>081-082-084-251400-  
EAST  
 
 
CITY SKY/WX TMP DP RH WIND PRES REMARKS
 
ALBANY PTSUNNY 61 53 75 S20G28 29.68S  
GLENS FALLS CLOUDY 44 40 85 CALM 29.67S  
POUGHKEEPSIE PTSUNNY 60 55 83 S9 29.72F  
NEWBURGH PTSUNNY 61 57 88 S7 29.74F  
MONTGOMERY CLOUDY 61 56 83 S8 29.71S  
WHITE PLAINS FOG 52 52 100 SE8 29.77S VSB 1/8  
ISLIP FOG 53 53 100 SE6 29.80S VSB 1/16  
NEW YORK CITY FOG 52 51 97 S5 29.77F VSB 1/4  
CENTRAL PARK CLOUDY 51 50 96 S5 29.79F FOG  

 
 
NYZ005>009-017-018-044>046-055-056-251400-  
CENTRAL  
 
 
CITY SKY/WX TMP DP RH WIND PRES REMARKS
 
FULTON CLOUDY 58 52 80 CALM 29.52F  
SYRACUSE CLOUDY 63 54 72 S6 29.52F  
ROME CLOUDY 61 54 77 E9 29.57F  
ELMIRA CLOUDY 63 52 67 S8 29.54F  
BINGHAMTON CLOUDY 59 53 80 S13G23 29.58F  
MONTICELLO PTSUNNY N/A N/A N/A SE10 29.72S  

 
 
NYZ026>034-041>043-087-251400-  
NORTH  
 
 
CITY SKY/WX TMP DP RH WIND PRES REMARKS
 
WATERTOWN CLOUDY 58 52 80 S8 29.52F  
FORT DRUM NOT AVBL  
OGDENSBURG CLOUDY 35 35 99 N5 29.56R FOG WCI 31  
MASSENA FOG 34 34 100 E8 29.58S VSB 1 WCI 27  
SARANAC LAKE CLOUDY 53 49 86 S8 29.58S  
PLATTSBURGH CLOUDY 36 35 96 CALM 29.60F FOG  

 
 
NYZ001>004-010>016-019>021-085-251400-  
WEST  
 
 
CITY SKY/WX TMP DP RH WIND PRES REMARKS
 
NIAGARA FALLS LGT RAIN 48 44 86 SW15 29.46R FOG  
BUFFALO RAIN 43 41 93 SW16G23 29.49R FOG  
DUNKIRK RAIN 44 42 93 SW15 29.52R FOG  
JAMESTOWN CLOUDY 45 41 87 NW13 29.49R  
WELLSVILLE LGT RAIN 57 50 77 S10 29.54F  
ROCHESTER PTSUNNY 62 51 67 S12 29.46F  
PENN YAN PTSUNNY 60 50 69 SW6 29.52F  

 
 
KEY  
WCI = WIND CHILL INDEX  
VSB = VISIBILITY  
HX = HEAT INDEX  

 
 
 
CLICK HERE TO GO TO PREVIOUS BULLETINS.

The Nexlab NY Page
The Nexlab VT Page
The Nexlab MA Page
The Nexlab CT Page Main Text Page